TimeCDT,TemperatureF,Dew PointF,Humidity,Sea Level PressureIn,VisibilityMPH,Wind Direction,Wind SpeedMPH,Gust SpeedMPH,PrecipitationIn,Events,Conditions,WindDirDegrees,DateUTC
12:15 AM,61.7,53.2,74,30.13,10.0,ESE,4.6,-,N/A,,Clear,110,2013-09-18 05:15:00
12:35 AM,60.1,53.6,79,30.13,10.0,East,3.5,-,N/A,,Clear,100,2013-09-18 05:35:00
12:55 AM,59.4,53.8,82,30.13,10.0,East,4.6,-,N/A,,Clear,100,2013-09-18 05:55:00
1:15 AM,60.1,54.0,80,30.12,10.0,ESE,4.6,-,N/A,,Clear,110,2013-09-18 06:15:00
1:35 AM,59.9,53.8,80,30.12,10.0,ESE,4.6,-,N/A,,Mostly Cloudy,110,2013-09-18 06:35:00
1:55 AM,59.7,53.8,81,30.12,10.0,ESE,4.6,-,N/A,,Scattered Clouds,120,2013-09-18 06:55:00
2:15 AM,59.4,54.0,82,30.12,10.0,SE,4.6,-,N/A,,Mostly Cloudy,130,2013-09-18 07:15:00
2:35 AM,59.0,54.0,83,30.11,10.0,SE,4.6,-,N/A,,Overcast,140,2013-09-18 07:35:00
2:55 AM,58.6,54.1,85,30.11,10.0,SE,3.5,-,N/A,,Scattered Clouds,130,2013-09-18 07:55:00
3:15 AM,58.3,54.1,86,30.11,10.0,Calm,Calm,-,N/A,,Clear,0,2013-09-18 08:15:00
3:35 AM,58.1,54.5,88,30.11,10.0,ESE,3.5,-,N/A,,Clear,110,2013-09-18 08:35:00
3:55 AM,58.5,54.9,88,30.10,10.0,ESE,3.5,-,N/A,,Clear,120,2013-09-18 08:55:00
4:15 AM,58.3,54.9,88,30.10,10.0,ESE,4.6,-,N/A,,Scattered Clouds,110,2013-09-18 09:15:00
4:35 AM,58.3,55.0,89,30.10,10.0,ESE,3.5,-,N/A,,Scattered Clouds,120,2013-09-18 09:35:00
4:55 AM,58.6,55.2,88,30.10,10.0,Calm,Calm,-,N/A,,Mostly Cloudy,0,2013-09-18 09:55:00
5:15 AM,59.0,55.4,88,30.10,10.0,ESE,3.5,-,N/A,,Scattered Clouds,120,2013-09-18 10:15:00
5:35 AM,59.0,55.4,88,30.10,10.0,SE,3.5,-,N/A,,Mostly Cloudy,130,2013-09-18 10:35:00
5:55 AM,59.5,55.6,87,30.10,10.0,SE,3.5,-,N/A,,Overcast,130,2013-09-18 10:55:00
6:15 AM,60.3,55.8,85,30.11,10.0,ESE,3.5,-,N/A,,Overcast,120,2013-09-18 11:15:00
6:35 AM,60.4,55.9,85,30.11,10.0,ESE,3.5,-,N/A,,Overcast,120,2013-09-18 11:35:00
6:55 AM,60.8,56.3,85,30.12,10.0,SE,3.5,-,N/A,,Overcast,130,2013-09-18 11:55:00
7:15 AM,61.3,56.3,83,30.12,10.0,ENE,3.5,-,N/A,,Overcast,60,2013-09-18 12:15:00
7:35 AM,61.7,56.5,83,30.11,10.0,ESE,3.5,-,N/A,,Overcast,120,2013-09-18 12:35:00
7:55 AM,62.2,56.7,82,30.11,10.0,ESE,4.6,-,N/A,,Overcast,120,2013-09-18 12:55:00
8:15 AM,63.0,56.7,80,30.11,10.0,SE,3.5,-,N/A,,Overcast,130,2013-09-18 13:15:00
8:35 AM,64.0,57.2,78,30.11,10.0,SE,5.8,-,N/A,,Overcast,130,2013-09-18 13:35:00
8:55 AM,65.5,57.2,75,30.11,10.0,SE,5.8,-,N/A,,Overcast,140,2013-09-18 13:55:00
9:15 AM,66.4,57.4,73,30.11,10.0,SE,5.8,-,N/A,,Overcast,140,2013-09-18 14:15:00
9:35 AM,68.4,57.9,69,30.10,10.0,South,6.9,-,N/A,,Overcast,170,2013-09-18 14:35:00
9:55 AM,70.7,58.5,65,30.10,10.0,South,10.4,-,N/A,,Overcast,180,2013-09-18 14:55:00
10:15 AM,72.0,59.2,64,30.09,10.0,South,10.4,-,N/A,,Overcast,170,2013-09-18 15:15:00
10:35 AM,73.6,59.9,62,30.09,10.0,South,9.2,-,N/A,,Mostly Cloudy,190,2013-09-18 15:35:00
10:55 AM,73.8,61.2,65,30.09,10.0,South,10.4,-,N/A,,Scattered Clouds,190,2013-09-18 15:55:00
11:15 AM,76.1,62.4,62,30.08,10.0,SSW,11.5,17.3,N/A,,Scattered Clouds,200,2013-09-18 16:15:00
11:35 AM,77.7,63.1,61,30.08,10.0,SSW,9.2,-,N/A,,Clear,210,2013-09-18 16:35:00
11:55 AM,79.5,64.0,59,30.07,10.0,South,9.2,-,N/A,,Scattered Clouds,190,2013-09-18 16:55:00
12:15 PM,80.4,65.1,59,30.06,10.0,South,10.4,-,N/A,,Mostly Cloudy,190,2013-09-18 17:15:00
12:35 PM,79.5,64.6,60,30.06,10.0,SSW,10.4,19.6,N/A,,Mostly Cloudy,200,2013-09-18 17:35:00
12:55 PM,79.7,64.8,60,30.05,10.0,South,9.2,-,N/A,,Overcast,190,2013-09-18 17:55:00
1:15 PM,80.1,64.8,59,30.04,10.0,South,11.5,-,N/A,,Overcast,180,2013-09-18 18:15:00
1:35 PM,80.1,64.4,59,30.03,10.0,South,11.5,-,N/A,,Overcast,180,2013-09-18 18:35:00
1:55 PM,81.5,64.9,57,30.03,10.0,SSW,10.4,-,N/A,,Overcast,210,2013-09-18 18:55:00
2:15 PM,82.2,65.3,56,30.02,10.0,SSW,9.2,-,N/A,,Mostly Cloudy,200,2013-09-18 19:15:00
2:35 PM,82.0,65.7,57,30.01,10.0,SSW,11.5,16.1,N/A,,Overcast,200,2013-09-18 19:35:00
2:55 PM,83.5,65.7,55,30.00,10.0,South,10.4,17.3,N/A,,Mostly Cloudy,180,2013-09-18 19:55:00
3:15 PM,84.6,65.8,53,29.99,10.0,South,13.8,19.6,N/A,,Scattered Clouds,190,2013-09-18 20:15:00
3:35 PM,83.5,65.8,55,29.99,10.0,SSW,9.2,-,N/A,,Scattered Clouds,200,2013-09-18 20:35:00
3:55 PM,83.5,65.5,54,29.99,10.0,SSW,13.8,17.3,N/A,,Clear,210,2013-09-18 20:55:00
4:15 PM,82.9,65.7,56,29.98,10.0,SSW,8.1,-,N/A,Thunderstorm,Clear,210,2013-09-18 21:15:00
4:35 PM,81.9,65.5,57,29.97,10.0,SSW,8.1,-,N/A,,Scattered Clouds,200,2013-09-18 21:35:00
4:55 PM,81.5,65.5,58,29.97,10.0,South,6.9,-,N/A,Thunderstorm,Thunderstorm,180,2013-09-18 21:55:00
5:15 PM,81.1,65.3,58,29.97,10.0,SSE,5.8,-,N/A,Thunderstorm,Overcast,150,2013-09-18 22:15:00
5:35 PM,72.0,65.7,80,29.99,10.0,NNE,10.4,-,N/A,Thunderstorm,Thunderstorm,20,2013-09-18 22:35:00
5:55 PM,71.6,66.6,84,29.98,10.0,East,8.1,-,N/A,Rain-Thunderstorm,Light Thunderstorms and Rain,80,2013-09-18 22:55:00
6:15 PM,71.2,67.5,88,29.98,10.0,ENE,10.4,-,N/A,Thunderstorm,Mostly Cloudy,70,2013-09-18 23:15:00
6:35 PM,71.6,67.1,86,29.97,10.0,East,5.8,-,N/A,Thunderstorm,Clear,100,2013-09-18 23:35:00
6:55 PM,71.6,66.6,84,29.96,10.0,East,6.9,-,N/A,,Clear,100,2013-09-18 23:55:00
7:15 PM,71.6,66.2,83,29.96,10.0,ESE,6.9,-,N/A,,Scattered Clouds,120,2013-09-19 00:15:00
7:35 PM,70.9,65.5,83,29.96,10.0,SE,5.8,-,N/A,,Scattered Clouds,130,2013-09-19 00:35:00
7:55 PM,70.7,64.9,82,29.97,10.0,SE,4.6,-,N/A,,Clear,130,2013-09-19 00:55:00
8:15 PM,70.3,65.3,84,29.97,10.0,SE,5.8,-,N/A,,Clear,130,2013-09-19 01:15:00
8:35 PM,72.0,65.5,80,29.99,10.0,SSE,6.9,-,N/A,,Mostly Cloudy,150,2013-09-19 01:35:00
8:55 PM,73.4,65.7,77,29.99,10.0,SSE,8.1,-,N/A,Thunderstorm,Overcast,160,2013-09-19 01:55:00
9:15 PM,73.4,65.7,77,29.99,10.0,South,9.2,-,N/A,Thunderstorm,Mostly Cloudy,170,2013-09-19 02:15:00
9:35 PM,73.2,66.2,79,29.99,10.0,South,6.9,-,N/A,,Scattered Clouds,170,2013-09-19 02:35:00
9:55 PM,72.5,66.2,81,29.99,10.0,South,8.1,-,N/A,,Scattered Clouds,170,2013-09-19 02:55:00
10:15 PM,72.7,66.4,81,29.99,10.0,South,9.2,-,N/A,,Mostly Cloudy,170,2013-09-19 03:15:00
10:35 PM,72.9,67.1,82,30.00,10.0,SSE,5.8,-,N/A,,Overcast,160,2013-09-19 03:35:00
10:55 PM,72.5,67.1,83,30.01,10.0,SSE,8.1,-,N/A,Thunderstorm,Mostly Cloudy,150,2013-09-19 03:55:00
11:15 PM,72.7,67.5,84,30.01,10.0,SSE,5.8,-,N/A,,Mostly Cloudy,150,2013-09-19 04:15:00
11:35 PM,72.9,67.6,84,30.01,10.0,SE,8.1,-,N/A,,Overcast,140,2013-09-19 04:35:00
11:55 PM,72.0,67.5,86,30.01,10.0,ESE,5.8,-,N/A,,Overcast,120,2013-09-19 04:55:00